MSC Paola — 9HA2581 — position and weather

sailwx.info

Track history (hours):
 
Tides and Currents Weather Stations Pressure Air Temp Water Temp Dewpoint Dewpoint Depression Visibility Wind Speed Wind Dir Waves Ship Positions

MSC Paola

Last reported at 2017-Dec-01 11:22 UTC. Time now 2018-Feb-18 22:28 UTC.
Position N 43°35' E 010°18'.
Warning: this ship's position is months out of date.

Length 243 m; draft 9.9 m.

Type: Cargo ship. MMSI: 248931000.

Date/timePositionNaut miles runAvg speedWind from/ knotsBaromVisibWave heightAir tempDewpointWater temp
2017-Dec-01 11:22N 43°35' E 010°18'0 0.0
2017-Dec-01 10:49N 43°35' E 010°18'0 0.0
2017-Dec-01 10:28N 43°35' E 010°18'0 0.0
2017-Dec-01 09:59N 43°35' E 010°18'0 0.0
2017-Dec-01 09:30N 43°35' E 010°18'0 0.0
2017-Dec-01 08:59N 43°35' E 010°18'0 0.0
2017-Dec-01 08:30N 43°35' E 010°18'0 0.0
2017-Dec-01 07:58N 43°35' E 010°18'0 0.0
2017-Dec-01 07:23N 43°35' E 010°18'0 0.0
2017-Dec-01 07:00N 43°35' E 010°18'0 0.0
2017-Dec-01 06:29N 43°35' E 010°18'0 0.0
2017-Dec-01 06:00N 43°35' E 010°18'0 0.0
2017-Dec-01 05:30N 43°35' E 010°18'0 0.0
2017-Dec-01 05:00N 43°35' E 010°18'0 0.0
2017-Dec-01 04:30N 43°35' E 010°18'0 0.0
2017-Dec-01 03:58N 43°35' E 010°18'0 0.0
2017-Dec-01 03:27N 43°35' E 010°18'0 0.0
2017-Dec-01 03:00N 43°35' E 010°18'0 0.0
2017-Dec-01 02:28N 43°35' E 010°18'0 0.0
2017-Dec-01 01:58N 43°35' E 010°18'0 0.0
2017-Dec-01 01:29N 43°35' E 010°18'0 0.0
2017-Dec-01 00:59N 43°35' E 010°18'0 0.0
2017-Dec-01 00:30N 43°35' E 010°18'0 0.0
2017-Nov-30 23:59N 43°35' E 010°18'0 0.0
2017-Nov-30 23:27N 43°35' E 010°18'0 0.0
2017-Nov-30 22:57N 43°35' E 010°18'0 0.0
2017-Nov-30 22:28N 43°35' E 010°18'1 2.2
2017-Nov-30 22:00N 43°34' E 010°18'3 5.7
2017-Nov-30 21:25N 43°31' E 010°15'2 5.8
2017-Nov-30 21:01N 43°29' E 010°12'2 4.4
2017-Nov-30 20:30N 43°28' E 010°10'1 1.5
2017-Nov-30 19:58N 43°28' E 010°09'2 4.4
2017-Nov-30 19:30N 43°29' E 010°07'613.0
2017-Nov-30 19:00N 43°30' E 009°58'612.9
2017-Nov-30 18:30N 43°32' E 009°49'612.5
2017-Nov-30 18:00N 43°36' E 009°43'612.5
2017-Nov-30 17:30N 43°40' E 009°37'612.8
2017-Nov-30 17:00N 43°44' E 009°30'612.7
2017-Nov-30 16:30N 43°49' E 009°23'612.5
2017-Nov-30 16:00N 43°53' E 009°18'612.8
2017-Nov-30 15:30N 43°58' E 009°12'612.8
2017-Nov-30 15:00N 44°03' E 009°06'612.8
2017-Nov-30 14:30N 44°07' E 008°60'612.8
2017-Nov-30 14:00N 44°12' E 008°53'612.7
2017-Nov-30 13:30N 44°16' E 008°47'612.4
2017-Nov-30 13:00N 44°21' E 008°42'510.1
2017-Nov-30 12:30N 44°25' E 008°46'1 1.2
2017-Nov-30 11:58N 44°25' E 008°47'0 0.0
2017-Nov-30 11:26N 44°25' E 008°47'0 0.0
2017-Nov-30 10:59N 44°25' E 008°47'0 0.0
2017-Nov-30 10:28N 44°25' E 008°47'0 0.0
2017-Nov-30 09:56N 44°25' E 008°47'0 0.0
2017-Nov-30 09:18N 44°25' E 008°47'0 0.0
2017-Nov-30 08:59N 44°25' E 008°47'0 0.0
2017-Nov-30 08:27N 44°25' E 008°47'0 0.0
2017-Nov-30 07:56N 44°25' E 008°47'0 0.0
2017-Nov-30 07:26N 44°25' E 008°47'0 0.0
2017-Nov-30 07:00N 44°25' E 008°47'0 0.0
2017-Nov-30 06:29N 44°25' E 008°47'0 0.0
2017-Nov-30 06:00N 44°25' E 008°47'1 2.0
2017-Nov-30 05:30N 44°25' E 008°46'3 5.6
2017-Nov-30 05:00N 44°23' E 008°44'1 2.4
2017-Nov-30 04:30N 44°22' E 008°43'4 7.5
2017-Nov-30 04:00N 44°18' E 008°42'1 2.3
2017-Nov-30 03:30N 44°17' E 008°43'1 1.4
2017-Nov-30 03:00N 44°18' E 008°43'1 1.6
2017-Nov-30 02:30N 44°18' E 008°43'2 3.5
2017-Nov-30 02:00N 44°18' E 008°41'510.8
2017-Nov-30 01:30N 44°13' E 008°38'611.9
2017-Nov-30 01:00N 44°08' E 008°34'611.4
2017-Nov-30 00:30N 44°02' E 008°31'611.4
2017-Nov-30 00:00N 43°57' E 008°28'611.6
2017-Nov-29 23:30N 43°52' E 008°25'611.3
2017-Nov-29 22:58N 43°47' E 008°20'5510.5
2017-Nov-29 17:46N 43°11' E 007°23'510.2
2017-Nov-29 17:18N 43°08' E 007°18'7 9.7
2017-Nov-29 16:37N 43°04' E 007°11'1 8.9
2017-Nov-29 16:30N 43°03' E 007°10'4 8.8
2017-Nov-29 16:00N 43°00' E 007°05'241 9.5
2017-Nov-28 14:32N 41°16' E 002°13'015.7
2017-Nov-28 14:30N 41°16' E 002°12'246 6.5
2017-Nov-27 00:29N 37°41' W 000°24'816.4
2017-Nov-27 00:00N 37°34' W 000°29'1016.4
2017-Nov-26 23:24N 37°27' W 000°38'616.3
2017-Nov-26 23:00N 37°23' W 000°44'816.3
2017-Nov-26 22:30N 37°17' W 000°51'21615.7
2017-Nov-26 08:48N 36°01' W 005°02'516.3
2017-Nov-26 08:31N 36°01' W 005°08'816.5
2017-Nov-26 08:00N 35°59' W 005°18'816.7
2017-Nov-26 07:30N 35°57' W 005°28'17516.4
2017-Nov-25 20:50N 36°30' W 009°01'616.5
2017-Nov-25 20:30N 36°32' W 009°08'4313.2
2017-Nov-25 17:14N 37°13' W 009°25'516.6
2017-Nov-25 16:56N 37°17' W 009°21'717.1
2017-Nov-25 16:30N 37°22' W 009°15'817.1
2017-Nov-25 16:01N 37°29' W 009°09'816.4
2017-Nov-25 15:31N 37°36' W 009°04'714.1
2017-Nov-25 15:00N 37°42' W 008°59'1 2.6
2017-Nov-25 14:30N 37°44' W 008°59'612.2
2017-Nov-25 14:00N 37°49' W 008°55'612.3
2017-Nov-25 13:30N 37°54' W 008°51'2 3.7
2017-Nov-25 13:00N 37°56' W 008°51'0 0.0
2017-Nov-25 12:30N 37°56' W 008°51'0 0.0
2017-Nov-25 12:00N 37°56' W 008°51'0 0.0
2017-Nov-25 11:30N 37°56' W 008°51'0 0.0
2017-Nov-25 11:00N 37°56' W 008°51'0 0.0
2017-Nov-25 10:30N 37°56' W 008°51'0 0.0
2017-Nov-25 10:00N 37°56' W 008°51'0 0.0
2017-Nov-25 09:30N 37°56' W 008°51'0 0.0
2017-Nov-25 09:00N 37°56' W 008°51'0 0.0
2017-Nov-25 08:30N 37°56' W 008°51'0 0.0
2017-Nov-25 08:00N 37°56' W 008°51'0 0.0
2017-Nov-25 07:30N 37°56' W 008°51'0 0.0
2017-Nov-25 07:00N 37°56' W 008°51'0 0.3
2017-Nov-25 06:31N 37°56' W 008°51'3 5.5
2017-Nov-25 06:00N 37°53' W 008°50'3 5.2
2017-Nov-25 05:30N 37°51' W 008°52'2 4.1
2017-Nov-25 05:00N 37°51' W 008°55'815.2
2017-Nov-25 04:30N 37°54' W 009°04'816.2
2017-Nov-25 04:00N 37°58' W 009°13'816.2
2017-Nov-25 03:30N 38°01' W 009°22'816.4
2017-Nov-25 03:00N 38°05' W 009°31'816.6
2017-Nov-25 02:30N 38°08' W 009°41'1016.4
2017-Nov-25 01:56N 38°14' W 009°51'716.4
2017-Nov-25 01:30N 38°17' W 009°59'816.2
2017-Nov-25 00:59N 38°21' W 010°09'7516.7
2017-Nov-24 20:28N 38°55' W 011°34'1016.8
2017-Nov-24 19:54N 38°60' W 011°45'1016.9
2017-Nov-24 19:19N 39°04' W 011°56'817.4
2017-Nov-24 18:50N 39°08' W 012°06'  
Track history (hours):
 
Tides and Currents Weather Stations Pressure Air Temp Water Temp Dewpoint Dewpoint Depression Visibility Wind Speed Wind Dir Waves Ship Positions

MSC Paola

Last reported at 2017-Dec-01 11:22 UTC. Time now 2018-Feb-18 22:28 UTC.
Position N 43°35' E 010°18'.
Warning: this ship's position is months out of date.

Length 243 m; draft 9.9 m.

Type: Cargo ship. MMSI: 248931000.

Date/timePositionNaut miles runAvg speedWind from/ knotsBaromVisibWave heightAir tempDewpointWater temp
2017-Dec-01 11:22N 43°35' E 010°18'0 0.0
2017-Dec-01 10:49N 43°35' E 010°18'0 0.0
2017-Dec-01 10:28N 43°35' E 010°18'0 0.0
2017-Dec-01 09:59N 43°35' E 010°18'0 0.0
2017-Dec-01 09:30N 43°35' E 010°18'0 0.0
2017-Dec-01 08:59N 43°35' E 010°18'0 0.0
2017-Dec-01 08:30N 43°35' E 010°18'0 0.0
2017-Dec-01 07:58N 43°35' E 010°18'0 0.0
2017-Dec-01 07:23N 43°35' E 010°18'0 0.0
2017-Dec-01 07:00N 43°35' E 010°18'0 0.0
2017-Dec-01 06:29N 43°35' E 010°18'0 0.0
2017-Dec-01 06:00N 43°35' E 010°18'0 0.0
2017-Dec-01 05:30N 43°35' E 010°18'0 0.0
2017-Dec-01 05:00N 43°35' E 010°18'0 0.0
2017-Dec-01 04:30N 43°35' E 010°18'0 0.0
2017-Dec-01 03:58N 43°35' E 010°18'0 0.0
2017-Dec-01 03:27N 43°35' E 010°18'0 0.0
2017-Dec-01 03:00N 43°35' E 010°18'0 0.0
2017-Dec-01 02:28N 43°35' E 010°18'0 0.0
2017-Dec-01 01:58N 43°35' E 010°18'0 0.0
2017-Dec-01 01:29N 43°35' E 010°18'0 0.0
2017-Dec-01 00:59N 43°35' E 010°18'0 0.0
2017-Dec-01 00:30N 43°35' E 010°18'0 0.0
2017-Nov-30 23:59N 43°35' E 010°18'0 0.0
2017-Nov-30 23:27N 43°35' E 010°18'0 0.0
2017-Nov-30 22:57N 43°35' E 010°18'0 0.0
2017-Nov-30 22:28N 43°35' E 010°18'1 2.2
2017-Nov-30 22:00N 43°34' E 010°18'3 5.7
2017-Nov-30 21:25N 43°31' E 010°15'2 5.8
2017-Nov-30 21:01N 43°29' E 010°12'2 4.4
2017-Nov-30 20:30N 43°28' E 010°10'1 1.5
2017-Nov-30 19:58N 43°28' E 010°09'2 4.4
2017-Nov-30 19:30N 43°29' E 010°07'613.0
2017-Nov-30 19:00N 43°30' E 009°58'612.9
2017-Nov-30 18:30N 43°32' E 009°49'612.5
2017-Nov-30 18:00N 43°36' E 009°43'612.5
2017-Nov-30 17:30N 43°40' E 009°37'612.8
2017-Nov-30 17:00N 43°44' E 009°30'612.7
2017-Nov-30 16:30N 43°49' E 009°23'612.5
2017-Nov-30 16:00N 43°53' E 009°18'612.8
2017-Nov-30 15:30N 43°58' E 009°12'612.8
2017-Nov-30 15:00N 44°03' E 009°06'612.8
2017-Nov-30 14:30N 44°07' E 008°60'612.8
2017-Nov-30 14:00N 44°12' E 008°53'612.7
2017-Nov-30 13:30N 44°16' E 008°47'612.4
2017-Nov-30 13:00N 44°21' E 008°42'510.1
2017-Nov-30 12:30N 44°25' E 008°46'1 1.2
2017-Nov-30 11:58N 44°25' E 008°47'0 0.0
2017-Nov-30 11:26N 44°25' E 008°47'0 0.0
2017-Nov-30 10:59N 44°25' E 008°47'0 0.0
2017-Nov-30 10:28N 44°25' E 008°47'0 0.0
2017-Nov-30 09:56N 44°25' E 008°47'0 0.0
2017-Nov-30 09:18N 44°25' E 008°47'0 0.0
2017-Nov-30 08:59N 44°25' E 008°47'0 0.0
2017-Nov-30 08:27N 44°25' E 008°47'0 0.0
2017-Nov-30 07:56N 44°25' E 008°47'0 0.0
2017-Nov-30 07:26N 44°25' E 008°47'0 0.0
2017-Nov-30 07:00N 44°25' E 008°47'0 0.0
2017-Nov-30 06:29N 44°25' E 008°47'0 0.0
2017-Nov-30 06:00N 44°25' E 008°47'1 2.0
2017-Nov-30 05:30N 44°25' E 008°46'3 5.6
2017-Nov-30 05:00N 44°23' E 008°44'1 2.4
2017-Nov-30 04:30N 44°22' E 008°43'4 7.5
2017-Nov-30 04:00N 44°18' E 008°42'1 2.3
2017-Nov-30 03:30N 44°17' E 008°43'1 1.4
2017-Nov-30 03:00N 44°18' E 008°43'1 1.6
2017-Nov-30 02:30N 44°18' E 008°43'2 3.5
2017-Nov-30 02:00N 44°18' E 008°41'510.8
2017-Nov-30 01:30N 44°13' E 008°38'611.9
2017-Nov-30 01:00N 44°08' E 008°34'611.4
2017-Nov-30 00:30N 44°02' E 008°31'611.4
2017-Nov-30 00:00N 43°57' E 008°28'611.6
2017-Nov-29 23:30N 43°52' E 008°25'611.3
2017-Nov-29 22:58N 43°47' E 008°20'5510.5
2017-Nov-29 17:46N 43°11' E 007°23'510.2
2017-Nov-29 17:18N 43°08' E 007°18'7 9.7
2017-Nov-29 16:37N 43°04' E 007°11'1 8.9
2017-Nov-29 16:30N 43°03' E 007°10'4 8.8
2017-Nov-29 16:00N 43°00' E 007°05'241 9.5
2017-Nov-28 14:32N 41°16' E 002°13'015.7
2017-Nov-28 14:30N 41°16' E 002°12'246 6.5
2017-Nov-27 00:29N 37°41' W 000°24'816.4
2017-Nov-27 00:00N 37°34' W 000°29'1016.4
2017-Nov-26 23:24N 37°27' W 000°38'616.3
2017-Nov-26 23:00N 37°23' W 000°44'816.3
2017-Nov-26 22:30N 37°17' W 000°51'21615.7
2017-Nov-26 08:48N 36°01' W 005°02'516.3
2017-Nov-26 08:31N 36°01' W 005°08'816.5
2017-Nov-26 08:00N 35°59' W 005°18'816.7
2017-Nov-26 07:30N 35°57' W 005°28'17516.4
2017-Nov-25 20:50N 36°30' W 009°01'616.5
2017-Nov-25 20:30N 36°32' W 009°08'4313.2
2017-Nov-25 17:14N 37°13' W 009°25'516.6
2017-Nov-25 16:56N 37°17' W 009°21'717.1
2017-Nov-25 16:30N 37°22' W 009°15'817.1
2017-Nov-25 16:01N 37°29' W 009°09'816.4
2017-Nov-25 15:31N 37°36' W 009°04'714.1
2017-Nov-25 15:00N 37°42' W 008°59'1 2.6
2017-Nov-25 14:30N 37°44' W 008°59'612.2
2017-Nov-25 14:00N 37°49' W 008°55'612.3
2017-Nov-25 13:30N 37°54' W 008°51'2 3.7
2017-Nov-25 13:00N 37°56' W 008°51'0 0.0
2017-Nov-25 12:30N 37°56' W 008°51'0 0.0
2017-Nov-25 12:00N 37°56' W 008°51'0 0.0
2017-Nov-25 11:30N 37°56' W 008°51'0 0.0
2017-Nov-25 11:00N 37°56' W 008°51'0 0.0
2017-Nov-25 10:30N 37°56' W 008°51'0 0.0
2017-Nov-25 10:00N 37°56' W 008°51'0 0.0
2017-Nov-25 09:30N 37°56' W 008°51'0 0.0
2017-Nov-25 09:00N 37°56' W 008°51'0 0.0
2017-Nov-25 08:30N 37°56' W 008°51'0 0.0
2017-Nov-25 08:00N 37°56' W 008°51'0 0.0
2017-Nov-25 07:30N 37°56' W 008°51'0 0.0
2017-Nov-25 07:00N 37°56' W 008°51'0 0.3
2017-Nov-25 06:31N 37°56' W 008°51'3 5.5
2017-Nov-25 06:00N 37°53' W 008°50'3 5.2
2017-Nov-25 05:30N 37°51' W 008°52'2 4.1
2017-Nov-25 05:00N 37°51' W 008°55'815.2
2017-Nov-25 04:30N 37°54' W 009°04'816.2
2017-Nov-25 04:00N 37°58' W 009°13'816.2
2017-Nov-25 03:30N 38°01' W 009°22'816.4
2017-Nov-25 03:00N 38°05' W 009°31'816.6
2017-Nov-25 02:30N 38°08' W 009°41'1016.4
2017-Nov-25 01:56N 38°14' W 009°51'716.4
2017-Nov-25 01:30N 38°17' W 009°59'816.2
2017-Nov-25 00:59N 38°21' W 010°09'7516.7
2017-Nov-24 20:28N 38°55' W 011°34'1016.8
2017-Nov-24 19:54N 38°60' W 011°45'1016.9
2017-Nov-24 19:19N 39°04' W 011°56'817.4
2017-Nov-24 18:50N 39°08' W 012°06'  

Dump ship's entire track history